| time (UTC) | temp F | wind direction | speed knots | gust knots | rain 1hr in | rain 24hr in | rain mn in | humidity % | barometer mb |
| 20260505022634 | 62 | 110 | 0.0 | 0.0 | 0.00 | 0.00 | 0.00 | 65 | 1013.7 |
| 20260505022131 | 62 | 110 | 0.0 | 0.0 | 0.00 | 0.00 | 0.00 | 65 | 1013.7 |
| 20260505021628 | 62 | 110 | 0.0 | 0.0 | 0.00 | 0.00 | 0.00 | 64 | 1013.8 |
| 20260505021125 | 62 | 110 | 0.0 | 0.0 | 0.00 | 0.00 | 0.00 | 65 | 1013.7 |
| 20260505020620 | 63 | 110 | 0.0 | 0.0 | 0.00 | 0.00 | 0.00 | 65 | 1013.6 |
| 20260505020116 | 64 | 110 | 0.0 | 0.0 | 0.00 | 0.00 | 0.00 | 65 | 1013.6 |
| 20260505015614 | 64 | 110 | 0.0 | 0.9 | 0.00 | 0.00 | 0.00 | 64 | 1013.7 |
| 20260505015110 | 64 | 109 | 0.0 | 0.0 | 0.00 | 0.00 | 0.00 | 59 | 1013.7 |
| 20260505014607 | 64 | 109 | 0.0 | 0.9 | 0.00 | 0.00 | 0.00 | 59 | 1013.4 |
| 20260505014104 | 64 | 109 | 0.0 | 0.0 | 0.00 | 0.00 | 0.00 | 59 | 1013.5 |
| 20260505013601 | 64 | 109 | 0.0 | 0.0 | 0.00 | 0.00 | 0.00 | 59 | 1013.3 |
| 20260505013059 | 64 | 109 | 0.0 | 0.9 | 0.00 | 0.00 | 0.00 | 59 | 1013.2 |
| 20260505012556 | 65 | 109 | 0.0 | 0.9 | 0.00 | 0.00 | 0.00 | 57 | 1013.3 |
| 20260505012053 | 65 | 109 | 0.0 | 0.0 | 0.00 | 0.00 | 0.00 | 55 | 1013.2 |
| 20260505011549 | 66 | 109 | 0.0 | 0.0 | 0.00 | 0.00 | 0.00 | 55 | 1013.5 |
| 20260505011047 | 66 | 109 | 0.0 | 0.0 | 0.00 | 0.00 | 0.00 | 54 | 1013.2 |
| 20260505010542 | 66 | 109 | 0.0 | 0.0 | 0.00 | 0.00 | 0.00 | 55 | 1013.0 |
| 20260505010038 | 67 | 109 | 0.0 | 0.0 | 0.00 | 0.00 | 0.00 | 54 | 1013.2 |
| 20260505005535 | 67 | 109 | 0.0 | 0.0 | 0.00 | 0.00 | 0.00 | 52 | 1013.3 |
| 20260505005033 | 68 | 109 | 0.0 | 0.0 | 0.00 | 0.00 | 0.00 | 51 | 1013.1 |
| 20260505004529 | 68 | 109 | 0.0 | 0.0 | 0.00 | 0.00 | 0.00 | 51 | 1013.0 |
| 20260505004026 | 69 | 109 | 0.0 | 0.0 | 0.00 | 0.00 | 0.00 | 50 | 1013.1 |
| 20260505003523 | 69 | 109 | 0.0 | 0.0 | 0.00 | 0.00 | 0.00 | 48 | 1013.1 |
| 20260505003021 | 69 | 109 | 0.0 | 0.0 | 0.00 | 0.00 | 0.00 | 47 | 1013.1 |
| 20260505002520 | 70 | 109 | 0.0 | 0.0 | 0.00 | 0.00 | 0.00 | 46 | 1013.2 |
| 20260505002015 | 70 | 109 | 0.0 | 0.0 | 0.00 | 0.00 | 0.00 | 45 | 1013.0 |
| 20260505001511 | 70 | 109 | 0.0 | 0.0 | 0.00 | 0.00 | 0.00 | 45 | 1012.7 |
| 20260505001009 | 71 | 109 | 0.0 | 0.0 | 0.00 | 0.00 | 0.00 | 45 | 1013.0 |
| 20260505000506 | 71 | 109 | 0.0 | 0.0 | 0.00 | 0.00 | 0.00 | 45 | 1013.0 |
| 20260505000003 | 71 | 109 | 0.0 | 0.0 | 0.00 | 0.00 | 0.00 | 45 | 1013.0 |
| 20260504235500 | 71 | 109 | 0.0 | 0.0 | 0.00 | 0.00 | 0.00 | 44 | 1012.9 |
| 20260504234956 | 71 | 109 | 0.0 | 0.0 | 0.00 | 0.00 | 0.00 | 44 | 1012.7 |
| 20260504234454 | 72 | 109 | 0.0 | 0.0 | 0.00 | 0.00 | 0.00 | 44 | 1012.6 |
| 20260504233950 | 72 | 109 | 0.0 | 0.0 | 0.00 | 0.00 | 0.00 | 45 | 1012.6 |
| 20260504233446 | 72 | 109 | 0.0 | 0.0 | 0.00 | 0.00 | 0.00 | 45 | 1012.9 |
| 20260504232943 | 72 | 108 | 0.0 | 0.0 | 0.00 | 0.00 | 0.00 | 46 | 1012.7 |
| 20260504232440 | 72 | 109 | 0.0 | 0.0 | 0.00 | 0.00 | 0.00 | 46 | 1012.9 |
| 20260504231938 | 73 | 109 | 0.0 | 0.9 | 0.00 | 0.00 | 0.00 | 47 | 1012.7 |
| 20260504231433 | 73 | 109 | 0.0 | 0.9 | 0.00 | 0.00 | 0.00 | 47 | 1012.6 |
| 20260504230930 | 73 | 113 | 0.0 | 0.9 | 0.00 | 0.00 | 0.00 | 46 | 1012.7 |
| 20260504230427 | 73 | 113 | 0.0 | 0.0 | 0.00 | 0.00 | 0.00 | 46 | 1012.5 |
| 20260504225926 | 74 | 113 | 0.0 | 0.9 | 0.00 | 0.00 | 0.00 | 46 | 1012.6 |
| 20260504225422 | 74 | 108 | 0.9 | 0.9 | 0.00 | 0.00 | 0.00 | 46 | 1012.6 |
| 20260504224920 | 75 | 108 | 0.0 | 0.9 | 0.00 | 0.00 | 0.00 | 47 | 1012.6 |
| 20260504224416 | 75 | 117 | 0.0 | 0.0 | 0.00 | 0.00 | 0.00 | 45 | 1012.7 |
| 20260504223913 | 75 | 108 | 0.0 | 0.9 | 0.00 | 0.00 | 0.00 | 44 | 1012.6 |
| 20260504223408 | 75 | 124 | 0.9 | 0.9 | 0.00 | 0.00 | 0.00 | 44 | 1012.9 |
| 20260504222905 | 75 | 113 | 0.0 | 0.9 | 0.00 | 0.00 | 0.00 | 44 | 1012.9 |
| 20260504222402 | 75 | 109 | 0.9 | 0.9 | 0.00 | 0.00 | 0.00 | 43 | 1013.0 |
| 20260504221900 | 76 | 110 | 0.0 | 0.9 | 0.00 | 0.00 | 0.00 | 43 | 1013.0 |
| 20260504221356 | 76 | 113 | 0.0 | 0.9 | 0.00 | 0.00 | 0.00 | 43 | 1013.0 |
| 20260504220854 | 76 | 106 | 0.0 | 0.9 | 0.00 | 0.00 | 0.00 | 42 | 1012.6 |
| 20260504220350 | 76 | 114 | 0.0 | 1.7 | 0.00 | 0.00 | 0.00 | 41 | 1012.7 |
| 20260504215848 | 76 | 115 | 0.0 | 0.9 | 0.00 | 0.00 | 0.00 | 40 | 1012.7 |
| 20260504215344 | 76 | 122 | 0.9 | 2.6 | 0.00 | 0.00 | 0.00 | 39 | 1012.9 |
| 20260504214840 | 77 | 182 | 2.6 | 4.3 | 0.00 | 0.00 | 0.00 | 42 | 1012.7 |
| 20260504214337 | 77 | 105 | 0.9 | 0.9 | 0.00 | 0.00 | 0.00 | 39 | 1012.9 |
| 20260504213834 | 77 | 103 | 0.9 | 1.7 | 0.00 | 0.00 | 0.00 | 40 | 1012.7 |
| 20260504213330 | 77 | 142 | 1.7 | 4.3 | 0.00 | 0.00 | 0.00 | 41 | 1012.9 |
| 20260504212827 | 77 | 158 | 2.6 | 4.3 | 0.00 | 0.00 | 0.00 | 41 | 1012.7 |
| 20260504212323 | 77 | 115 | 1.7 | 4.3 | 0.00 | 0.00 | 0.00 | 42 | 1013.0 |
| 20260504211821 | 78 | 118 | 1.7 | 2.6 | 0.00 | 0.00 | 0.00 | 37 | 1012.6 |
| 20260504211317 | 78 | 113 | 0.0 | 0.9 | 0.00 | 0.00 | 0.00 | 39 | 1012.7 |
| 20260504210815 | 78 | 116 | 0.9 | 1.7 | 0.00 | 0.00 | 0.00 | 39 | 1012.9 |
| 20260504210312 | 78 | 115 | 0.0 | 1.7 | 0.00 | 0.00 | 0.00 | 39 | 1013.0 |
| 20260504205809 | 79 | 110 | 0.0 | 0.9 | 0.00 | 0.00 | 0.00 | 40 | 1013.1 |
| 20260504205306 | 78 | 113 | 0.0 | 0.9 | 0.00 | 0.00 | 0.00 | 39 | 1013.1 |
| 20260504204804 | 78 | 128 | 0.9 | 4.3 | 0.00 | 0.00 | 0.00 | 44 | 1013.2 |
| 20260504204303 | 78 | 135 | 1.7 | 2.6 | 0.00 | 0.00 | 0.00 | 39 | 1013.2 |
| 20260504203802 | 78 | 103 | 0.9 | 1.7 | 0.00 | 0.00 | 0.00 | 38 | 1013.1 |
| 20260504203259 | 78 | 117 | 0.9 | 1.7 | 0.00 | 0.00 | 0.00 | 40 | 1013.2 |
| 20260504202758 | 78 | 115 | 0.9 | 2.6 | 0.00 | 0.00 | 0.00 | 43 | 1013.3 |
| 20260504202256 | 78 | 86 | 1.7 | 2.6 | 0.00 | 0.00 | 0.00 | 42 | 1013.3 |
| 20260504201753 | 77 | 118 | 0.9 | 2.6 | 0.00 | 0.00 | 0.00 | 42 | 1013.6 |
| 20260504201250 | 77 | 126 | 1.7 | 4.3 | 0.00 | 0.00 | 0.00 | 46 | 1013.4 |
| 20260504200748 | 78 | 176 | 2.6 | 5.2 | 0.00 | 0.00 | 0.00 | 42 | 1013.5 |
| 20260504200243 | 78 | 114 | 0.9 | 0.9 | 0.00 | 0.00 | 0.00 | 40 | 1013.4 |
| 20260504195740 | 78 | 122 | 0.9 | 4.3 | 0.00 | 0.00 | 0.00 | 40 | 1013.7 |
| 20260504195236 | 78 | 165 | 2.6 | 5.2 | 0.00 | 0.00 | 0.00 | 43 | 1013.8 |
| 20260504194734 | 79 | 166 | 3.5 | 5.2 | 0.00 | 0.00 | 0.00 | 43 | 1013.8 |
| 20260504194229 | 79 | 107 | 0.9 | 4.3 | 0.00 | 0.00 | 0.00 | 43 | 1013.9 |
| 20260504193726 | 79 | 124 | 0.0 | 1.7 | 0.00 | 0.00 | 0.00 | 41 | 1014.0 |
| 20260504193224 | 78 | 133 | 0.9 | 1.7 | 0.00 | 0.00 | 0.00 | 43 | 1014.1 |
| 20260504192722 | 78 | 142 | 1.7 | 1.7 | 0.00 | 0.00 | 0.00 | 46 | 1014.1 |
| 20260504192220 | 78 | 132 | 1.7 | 1.7 | 0.00 | 0.00 | 0.00 | 46 | 1014.3 |
| 20260504191718 | 78 | 94 | 0.9 | 1.7 | 0.00 | 0.00 | 0.00 | 45 | 1014.3 |
| 20260504191215 | 78 | 119 | 0.0 | 1.7 | 0.00 | 0.00 | 0.00 | 45 | 1014.7 |
| 20260504190710 | 77 | 129 | 2.6 | 2.6 | 0.00 | 0.00 | 0.00 | 43 | 1014.5 |
| 20260504190206 | 77 | 100 | 0.9 | 1.7 | 0.00 | 0.00 | 0.00 | 42 | 1014.5 |
| 20260504185703 | 77 | 152 | 2.6 | 2.6 | 0.00 | 0.00 | 0.00 | 46 | 1014.6 |
| 20260504185159 | 76 | 154 | 1.7 | 4.3 | 0.00 | 0.00 | 0.00 | 46 | 1014.9 |
| 20260504184656 | 76 | 171 | 3.5 | 6.1 | 0.00 | 0.00 | 0.00 | 46 | 1014.9 |
| 20260504184150 | 76 | 120 | 1.7 | 2.6 | 0.00 | 0.00 | 0.00 | 44 | 1014.9 |
| 20260504183648 | 75 | 160 | 4.3 | 5.2 | 0.00 | 0.00 | 0.00 | 48 | 1015.1 |
| 20260504183145 | 74 | 138 | 0.9 | 2.6 | 0.00 | 0.00 | 0.00 | 46 | 1015.0 |
| 20260504182643 | 74 | 147 | 2.6 | 6.1 | 0.00 | 0.00 | 0.00 | 45 | 1015.2 |
| 20260504182140 | 75 | 154 | 2.6 | 5.2 | 0.00 | 0.00 | 0.00 | 50 | 1015.3 |
| 20260504181638 | 75 | 190 | 4.3 | 6.1 | 0.00 | 0.00 | 0.00 | 47 | 1015.4 |
| 20260504181136 | 75 | 153 | 3.5 | 4.3 | 0.00 | 0.00 | 0.00 | 47 | 1015.2 |
| 20260504180634 | 74 | 164 | 4.3 | 6.1 | 0.00 | 0.00 | 0.00 | 48 | 1015.3 |
| 20260504180132 | 75 | 165 | 2.6 | 5.2 | 0.00 | 0.00 | 0.00 | 47 | 1015.3 |
| 20260504175629 | 75 | 170 | 4.3 | 4.3 | 0.00 | 0.00 | 0.00 | 46 | 1015.4 |
| 20260504175126 | 73 | 141 | 2.6 | 5.2 | 0.00 | 0.00 | 0.00 | 47 | 1015.6 |
| 20260504174624 | 73 | 134 | 2.6 | 5.2 | 0.00 | 0.00 | 0.00 | 46 | 1015.6 |
| 20260504174120 | 73 | 165 | 2.6 | 5.2 | 0.00 | 0.00 | 0.00 | 48 | 1015.6 |
| 20260504173618 | 73 | 140 | 2.6 | 4.3 | 0.00 | 0.00 | 0.00 | 47 | 1015.7 |
| 20260504173115 | 74 | 152 | 2.6 | 4.3 | 0.00 | 0.00 | 0.00 | 49 | 1015.9 |
| 20260504172611 | 73 | 138 | 1.7 | 4.3 | 0.00 | 0.00 | 0.00 | 49 | 1016.1 |
| 20260504172108 | 73 | 178 | 3.5 | 5.2 | 0.00 | 0.00 | 0.00 | 48 | 1015.8 |
| 20260504171604 | 73 | 167 | 0.9 | 2.6 | 0.00 | 0.00 | 0.00 | 48 | 1015.9 |
| 20260504171102 | 72 | 84 | 1.7 | 1.7 | 0.00 | 0.00 | 0.00 | 49 | 1016.1 |
| 20260504170557 | 72 | 176 | 3.5 | 5.2 | 0.00 | 0.00 | 0.00 | 47 | 1016.2 |
| 20260504150941 | 62 | 132 | 0.9 | 1.7 | 0.00 | 0.00 | 0.00 | 66 | 1018.1 |
| 20260504150438 | 61 | 131 | 0.0 | 0.0 | 0.00 | 0.00 | 0.00 | 68 | 1018.3 |
| 20260504140904 | 55 | 116 | 0.0 | 0.9 | 0.00 | 0.00 | 0.00 | 80 | 1018.8 |
| 20260504140400 | 55 | 117 | 0.0 | 0.9 | 0.00 | 0.00 | 0.00 | 81 | 1018.8 |
| 20260504130325 | 48 | 109 | 0.0 | 0.0 | 0.00 | 0.00 | 0.00 | 93 | 1018.6 |
| 20260504120249 | 42 | 106 | 0.0 | 0.0 | 0.00 | 0.00 | 0.00 | 97 | 1017.7 |
| 20260504110716 | 41 | 101 | 0.0 | 0.0 | 0.00 | 0.00 | 0.00 | 96 | 1017.7 |
| 20260504110212 | 40 | 102 | 0.0 | 0.0 | 0.00 | 0.00 | 0.00 | 96 | 1017.6 |
| 20260504100131 | 41 | 117 | 0.9 | 0.9 | 0.00 | 0.00 | 0.00 | 95 | 1017.4 |
| 20260504081524 | 41 | 118 | 0.0 | 0.0 | 0.00 | 0.00 | 0.00 | 93 | 1017.8 |
| 20260504081019 | 41 | 118 | 0.0 | 0.0 | 0.00 | 0.00 | 0.00 | 93 | 1018.2 |
| 20260504080516 | 41 | 118 | 0.0 | 0.0 | 0.00 | 0.00 | 0.00 | 93 | 1018.1 |
| 20260504050328 | 45 | 120 | 0.0 | 0.0 | 0.00 | 0.00 | 0.00 | 85 | 1017.9 |
| 20260504045826 | 45 | 121 | 0.0 | 0.0 | 0.00 | 0.00 | 0.00 | 85 | 1017.9 |
| 20260504045320 | 45 | 121 | 0.0 | 0.0 | 0.00 | 0.00 | 0.00 | 84 | 1017.8 |
| 20260504044818 | 45 | 121 | 0.0 | 0.0 | 0.00 | 0.00 | 0.00 | 84 | 1017.7 |
| 20260504044315 | 45 | 121 | 0.0 | 0.0 | 0.00 | 0.00 | 0.00 | 84 | 1017.8 |
| 20260504043812 | 46 | 121 | 0.0 | 0.0 | 0.00 | 0.00 | 0.00 | 83 | 1017.8 |
| 20260504043309 | 46 | 121 | 0.0 | 0.0 | 0.00 | 0.00 | 0.00 | 82 | 1017.8 |
| 20260504042807 | 46 | 121 | 0.0 | 0.0 | 0.00 | 0.00 | 0.00 | 82 | 1017.7 |
| 20260504042304 | 46 | 121 | 0.0 | 0.0 | 0.00 | 0.00 | 0.00 | 81 | 1017.6 |
| 20260504041759 | 46 | 121 | 0.0 | 0.0 | 0.00 | 0.00 | 0.00 | 81 | 1017.7 |
| 20260504041255 | 46 | 121 | 0.0 | 0.0 | 0.00 | 0.00 | 0.00 | 81 | 1017.5 |
| 20260504040752 | 46 | 121 | 0.0 | 0.0 | 0.00 | 0.00 | 0.00 | 81 | 1017.7 |
| 20260504040249 | 46 | 121 | 0.0 | 0.0 | 0.00 | 0.00 | 0.00 | 80 | 1017.5 |
| 20260504035745 | 46 | 121 | 0.0 | 0.0 | 0.00 | 0.00 | 0.00 | 79 | 1017.5 |
| 20260504035242 | 47 | 121 | 0.0 | 0.0 | 0.00 | 0.00 | 0.00 | 79 | 1017.5 |
| 20260504034740 | 47 | 121 | 0.0 | 0.0 | 0.00 | 0.00 | 0.00 | 78 | 1017.6 |
| 20260504034237 | 47 | 121 | 0.0 | 0.0 | 0.00 | 0.00 | 0.00 | 79 | 1017.4 |
| 20260504033734 | 47 | 121 | 0.0 | 0.0 | 0.00 | 0.00 | 0.00 | 78 | 1017.5 |
| 20260504033232 | 47 | 121 | 0.0 | 0.0 | 0.00 | 0.00 | 0.00 | 77 | 1017.4 |
| 20260504032728 | 47 | 121 | 0.0 | 0.0 | 0.00 | 0.00 | 0.00 | 77 | 1017.5 |
| 20260504032226 | 47 | 121 | 0.0 | 0.0 | 0.00 | 0.00 | 0.00 | 77 | 1017.6 |
| 20260504031722 | 48 | 121 | 0.0 | 0.9 | 0.00 | 0.00 | 0.00 | 77 | 1017.4 |
| 20260504031220 | 48 | 121 | 0.0 | 0.0 | 0.00 | 0.00 | 0.00 | 78 | 1017.4 |
| 20260504030715 | 48 | 121 | 0.0 | 0.0 | 0.00 | 0.00 | 0.00 | 76 | 1017.4 |
| 20260504030213 | 48 | 121 | 0.0 | 0.0 | 0.00 | 0.00 | 0.00 | 75 | 1017.6 |
| 20260504025709 | 49 | 121 | 0.0 | 0.0 | 0.00 | 0.00 | 0.00 | 75 | 1017.4 |
| 20260504025206 | 49 | 121 | 0.0 | 0.0 | 0.00 | 0.00 | 0.00 | 71 | 1017.6 |
| 20260504024703 | 49 | 121 | 0.9 | 0.9 | 0.00 | 0.00 | 0.00 | 71 | 1017.6 |
| 20260504024200 | 49 | 121 | 0.0 | 0.9 | 0.00 | 0.00 | 0.00 | 70 | 1017.4 |
| 20260504023656 | 49 | 121 | 0.0 | 0.0 | 0.00 | 0.00 | 0.00 | 69 | 1017.5 |
| 20260504023152 | 50 | 121 | 0.0 | 0.0 | 0.00 | 0.00 | 0.00 | 69 | 1017.4 |